Year,Month,Day,Hour,Minute,Value (Times are PST for temperature in C)
2007,07,23,00,00,15.90
2007,07,23,00,01,15.90
2007,07,23,00,02,15.90
2007,07,23,00,03,15.90
2007,07,23,00,04,15.90
2007,07,23,00,05,15.90
2007,07,23,00,06,15.90
2007,07,23,00,07,15.90
2007,07,23,00,08,15.90
2007,07,23,00,09,16.00
2007,07,23,00,10,16.00
2007,07,23,00,11,16.00
2007,07,23,00,12,16.10
2007,07,23,00,13,16.00
2007,07,23,00,14,16.10
2007,07,23,00,15,16.10
2007,07,23,00,16,16.10
2007,07,23,00,17,16.10
2007,07,23,00,18,16.10
2007,07,23,00,19,16.10
2007,07,23,00,20,16.10
2007,07,23,00,21,16.10
2007,07,23,00,22,16.10
2007,07,23,00,23,16.10
2007,07,23,00,24,16.10
2007,07,23,00,25,16.10
2007,07,23,00,26,16.20
2007,07,23,00,27,16.20
2007,07,23,00,28,16.20
2007,07,23,00,29,16.20
2007,07,23,00,30,16.20
2007,07,23,00,31,16.20
2007,07,23,00,32,16.20
2007,07,23,00,33,16.20
2007,07,23,00,34,16.20
2007,07,23,00,35,16.20
2007,07,23,00,36,16.20
2007,07,23,00,37,16.20
2007,07,23,00,38,16.20
2007,07,23,00,39,16.20
2007,07,23,00,40,16.20
2007,07,23,00,41,16.10
2007,07,23,00,42,16.10
2007,07,23,00,43,16.00
2007,07,23,00,44,16.00
2007,07,23,00,45,15.90
2007,07,23,00,46,15.90
2007,07,23,00,47,15.90
2007,07,23,00,48,15.90
2007,07,23,00,49,15.80
2007,07,23,00,50,15.80
2007,07,23,00,51,15.80
2007,07,23,00,52,15.80
2007,07,23,00,53,15.70
2007,07,23,00,54,15.70
2007,07,23,00,55,15.70
2007,07,23,00,56,15.70
2007,07,23,00,57,15.70
2007,07,23,00,58,15.70
2007,07,23,00,59,15.70
2007,07,23,01,00,15.80
2007,07,23,01,01,15.80
2007,07,23,01,02,15.80
2007,07,23,01,03,15.80
2007,07,23,01,04,15.80
2007,07,23,01,05,15.80
2007,07,23,01,06,15.80
2007,07,23,01,07,15.80
2007,07,23,01,08,15.80
2007,07,23,01,09,15.80
2007,07,23,01,10,15.80
2007,07,23,01,11,15.80
2007,07,23,01,12,15.80
2007,07,23,01,13,15.80
2007,07,23,01,14,15.80
2007,07,23,01,15,15.80
2007,07,23,01,16,15.80
2007,07,23,01,17,15.80
2007,07,23,01,18,15.80
2007,07,23,01,19,15.80
2007,07,23,01,20,15.80
2007,07,23,01,21,15.80
2007,07,23,01,22,15.80
2007,07,23,01,23,15.80
2007,07,23,01,24,15.80
2007,07,23,01,25,15.80
2007,07,23,01,26,15.80
2007,07,23,01,27,15.80
2007,07,23,01,28,15.80
2007,07,23,01,29,15.80
2007,07,23,01,30,15.80
2007,07,23,01,31,15.80
2007,07,23,01,32,15.80
2007,07,23,01,33,15.80
2007,07,23,01,34,15.80
2007,07,23,01,35,15.90
2007,07,23,01,36,15.90
2007,07,23,01,37,15.90
2007,07,23,01,38,15.90
2007,07,23,01,39,15.90
2007,07,23,01,40,15.90
2007,07,23,01,41,15.90
2007,07,23,01,42,15.90
2007,07,23,01,43,15.90
2007,07,23,01,44,15.90
2007,07,23,01,45,15.90
2007,07,23,01,46,15.90
2007,07,23,01,47,15.90
2007,07,23,01,48,15.90
2007,07,23,01,49,15.90
2007,07,23,01,50,15.90
2007,07,23,01,51,15.90
2007,07,23,01,52,15.90
2007,07,23,01,53,15.90
2007,07,23,01,54,15.90
2007,07,23,01,55,15.90
2007,07,23,01,56,15.90
2007,07,23,01,57,16.00
2007,07,23,01,58,16.00
2007,07,23,01,59,16.00
2007,07,23,02,00,16.00
2007,07,23,02,01,16.00
2007,07,23,02,02,16.00
2007,07,23,02,03,16.00
2007,07,23,02,04,16.10
2007,07,23,02,05,16.10
2007,07,23,02,06,16.10
2007,07,23,02,07,16.10
2007,07,23,02,08,16.10
2007,07,23,02,09,16.10
2007,07,23,02,10,16.10
2007,07,23,02,11,16.10
2007,07,23,02,12,16.10
2007,07,23,02,13,16.20
2007,07,23,02,14,16.20
2007,07,23,02,15,16.20
2007,07,23,02,16,16.20
2007,07,23,02,17,16.20
2007,07,23,02,18,16.20
2007,07,23,02,19,16.20
2007,07,23,02,20,16.20
2007,07,23,02,21,16.20
2007,07,23,02,22,16.20
2007,07,23,02,23,16.30
2007,07,23,02,24,16.30
2007,07,23,02,25,16.30
2007,07,23,02,26,16.30
2007,07,23,02,27,16.30
2007,07,23,02,28,16.30
2007,07,23,02,29,16.30
2007,07,23,02,30,16.30
2007,07,23,02,31,16.30
2007,07,23,02,32,16.30
2007,07,23,02,33,16.30
2007,07,23,02,34,16.30
2007,07,23,02,35,16.30
2007,07,23,02,36,16.30
2007,07,23,02,37,16.30
2007,07,23,02,38,16.30
2007,07,23,02,39,16.30
2007,07,23,02,40,16.30
2007,07,23,02,41,16.30
2007,07,23,02,42,16.30
2007,07,23,02,43,16.30
2007,07,23,02,44,16.30
2007,07,23,02,45,16.30
2007,07,23,02,46,16.30
2007,07,23,02,47,16.30
2007,07,23,02,48,16.30
2007,07,23,02,49,16.30
2007,07,23,02,50,16.30
2007,07,23,02,51,16.30
2007,07,23,02,52,16.20
2007,07,23,02,53,16.20
2007,07,23,02,54,16.20
2007,07,23,02,55,16.20
2007,07,23,02,56,16.10
2007,07,23,02,57,16.10
2007,07,23,02,58,16.10
2007,07,23,02,59,16.00
2007,07,23,03,00,16.00
2007,07,23,03,01,15.90
2007,07,23,03,02,15.90
2007,07,23,03,03,15.90
2007,07,23,03,04,15.80
2007,07,23,03,05,15.80
2007,07,23,03,06,15.80
2007,07,23,03,07,15.80
2007,07,23,03,08,15.80
2007,07,23,03,09,15.80
2007,07,23,03,10,15.80
2007,07,23,03,11,15.70
2007,07,23,03,12,15.70
2007,07,23,03,13,15.70
2007,07,23,03,14,15.70
2007,07,23,03,15,15.70
2007,07,23,03,16,15.70
2007,07,23,03,17,15.70
2007,07,23,03,18,15.70
2007,07,23,03,19,15.70
2007,07,23,03,20,15.70
2007,07,23,03,21,15.70
2007,07,23,03,22,15.70
2007,07,23,03,23,15.70
2007,07,23,03,24,15.70
2007,07,23,03,25,15.70
2007,07,23,03,26,15.70
2007,07,23,03,27,15.70
2007,07,23,03,28,15.70
2007,07,23,03,29,15.70
2007,07,23,03,30,15.70
2007,07,23,03,31,15.70
2007,07,23,03,32,15.70
2007,07,23,03,33,15.70
2007,07,23,03,34,15.60
2007,07,23,03,35,15.60
2007,07,23,03,36,15.60
2007,07,23,03,37,15.60
2007,07,23,03,38,15.60
2007,07,23,03,39,15.60
2007,07,23,03,40,15.50
2007,07,23,03,41,15.50
2007,07,23,03,42,15.40
2007,07,23,03,43,15.40
2007,07,23,03,44,15.40
2007,07,23,03,45,15.30
2007,07,23,03,46,15.30
2007,07,23,03,47,15.30
2007,07,23,03,48,15.30
2007,07,23,03,49,15.20
2007,07,23,03,50,15.20
2007,07,23,03,51,15.20
2007,07,23,03,52,15.10
2007,07,23,03,53,15.10
2007,07,23,03,54,15.00
2007,07,23,03,55,15.00
2007,07,23,03,56,15.00
2007,07,23,03,57,15.00
2007,07,23,03,58,15.00
2007,07,23,03,59,15.00
2007,07,23,04,00,15.00
2007,07,23,04,01,15.00
2007,07,23,04,02,15.00
2007,07,23,04,03,15.00
2007,07,23,04,04,15.00
2007,07,23,04,05,15.00
2007,07,23,04,06,15.00
2007,07,23,04,07,15.00
2007,07,23,04,08,15.00
2007,07,23,04,09,15.00
2007,07,23,04,10,15.00
2007,07,23,04,11,15.00
2007,07,23,04,12,15.00
2007,07,23,04,13,15.00
2007,07,23,04,14,15.00
2007,07,23,04,15,15.00
2007,07,23,04,16,14.90
2007,07,23,04,17,14.80
2007,07,23,04,18,14.70
2007,07,23,04,19,14.70
2007,07,23,04,20,14.70
2007,07,23,04,21,14.60
2007,07,23,04,22,14.60
2007,07,23,04,23,14.50
2007,07,23,04,24,14.50
2007,07,23,04,25,14.40
2007,07,23,04,26,14.40
2007,07,23,04,27,14.40
2007,07,23,04,28,14.30
2007,07,23,04,29,14.30
2007,07,23,04,30,14.30
2007,07,23,04,31,14.20
2007,07,23,04,32,14.20
2007,07,23,04,33,14.20
2007,07,23,04,34,14.20
2007,07,23,04,35,14.10
2007,07,23,04,36,14.10
2007,07,23,04,37,14.10
2007,07,23,04,38,14.10
2007,07,23,04,39,14.20
2007,07,23,04,40,14.20
2007,07,23,04,41,14.20
2007,07,23,04,42,14.20
2007,07,23,04,43,14.20
2007,07,23,04,44,14.20
2007,07,23,04,45,14.20
2007,07,23,04,46,14.30
2007,07,23,04,47,14.30
2007,07,23,04,48,14.30
2007,07,23,04,49,14.30
2007,07,23,04,50,14.40
2007,07,23,04,51,14.40
2007,07,23,04,52,14.40
2007,07,23,04,53,14.40
2007,07,23,04,54,14.40
2007,07,23,04,55,14.40
2007,07,23,04,56,14.50
2007,07,23,04,57,14.50
2007,07,23,04,58,14.50
2007,07,23,04,59,14.40
2007,07,23,05,00,14.40
2007,07,23,05,01,14.40
2007,07,23,05,02,14.40
2007,07,23,05,03,14.40
2007,07,23,05,04,14.40
2007,07,23,05,05,14.40
2007,07,23,05,06,14.40
2007,07,23,05,07,14.30
2007,07,23,05,08,14.30
2007,07,23,05,09,14.30
2007,07,23,05,10,14.30
2007,07,23,05,11,14.30
2007,07,23,05,12,14.30
2007,07,23,05,13,14.30
2007,07,23,05,14,14.30
2007,07,23,05,15,14.30
2007,07,23,05,16,14.30
2007,07,23,05,17,14.30
2007,07,23,05,18,14.40
2007,07,23,05,19,14.40
2007,07,23,05,20,14.40
2007,07,23,05,21,14.40
2007,07,23,05,22,14.40
2007,07,23,05,23,14.40
2007,07,23,05,24,14.40
2007,07,23,05,25,14.50
2007,07,23,05,26,14.50
2007,07,23,05,27,14.50
2007,07,23,05,28,14.50
2007,07,23,05,29,14.50
2007,07,23,05,30,14.50
2007,07,23,05,31,14.50
2007,07,23,05,32,14.50
2007,07,23,05,33,14.50
2007,07,23,05,34,14.40
2007,07,23,05,35,14.40
2007,07,23,05,36,14.40
2007,07,23,05,37,14.40
2007,07,23,05,38,14.30
2007,07,23,05,39,14.30
2007,07,23,05,40,14.30
2007,07,23,05,41,14.30
2007,07,23,05,42,14.20
2007,07,23,05,43,14.20
2007,07,23,05,44,14.20
2007,07,23,05,45,14.10
2007,07,23,05,46,14.00
2007,07,23,05,47,14.00
2007,07,23,05,48,13.90
2007,07,23,05,49,13.90
2007,07,23,05,50,13.90
2007,07,23,05,51,13.90
2007,07,23,05,52,13.90
2007,07,23,05,53,13.90
2007,07,23,05,54,13.80
2007,07,23,05,55,13.80
2007,07,23,05,56,13.80
2007,07,23,05,57,13.80
2007,07,23,05,58,13.80
2007,07,23,05,59,13.70
2007,07,23,06,00,13.70
2007,07,23,06,01,13.70
2007,07,23,06,02,13.70
2007,07,23,06,03,13.80
2007,07,23,06,04,13.80
2007,07,23,06,05,13.70
2007,07,23,06,06,13.70
2007,07,23,06,07,13.70
2007,07,23,06,08,13.70
2007,07,23,06,09,13.70
2007,07,23,06,10,13.70
2007,07,23,06,11,13.60
2007,07,23,06,12,13.60
2007,07,23,06,13,13.60
2007,07,23,06,14,13.60
2007,07,23,06,15,13.60
2007,07,23,06,16,13.50
2007,07,23,06,17,13.50
2007,07,23,06,18,13.50
2007,07,23,06,19,13.50
2007,07,23,06,20,13.50
2007,07,23,06,21,13.40
2007,07,23,06,22,13.40
2007,07,23,06,23,13.40
2007,07,23,06,24,13.40
2007,07,23,06,25,13.40
2007,07,23,06,26,13.40
2007,07,23,06,27,13.40
2007,07,23,06,28,13.40
2007,07,23,06,29,13.40
2007,07,23,06,30,13.40
2007,07,23,06,31,13.40
2007,07,23,06,32,13.40
2007,07,23,06,33,13.50
2007,07,23,06,34,13.50
2007,07,23,06,35,13.50
2007,07,23,06,36,13.50
2007,07,23,06,37,13.60
2007,07,23,06,38,13.60
2007,07,23,06,39,13.60
2007,07,23,06,40,13.60
2007,07,23,06,41,13.60
2007,07,23,06,42,13.60
2007,07,23,06,43,13.60
2007,07,23,06,44,13.60
2007,07,23,06,45,13.60
2007,07,23,06,46,13.60
2007,07,23,06,47,13.60
2007,07,23,06,48,13.60
2007,07,23,06,49,13.60
2007,07,23,06,50,13.60
2007,07,23,06,51,13.60
2007,07,23,06,52,13.60
2007,07,23,06,53,13.60
2007,07,23,06,54,13.60
2007,07,23,06,55,13.60
2007,07,23,06,56,13.60
2007,07,23,06,57,13.60
2007,07,23,06,58,13.60
2007,07,23,06,59,13.60
2007,07,23,07,00,13.60
2007,07,23,07,01,13.60
2007,07,23,07,02,13.60
2007,07,23,07,03,13.60
2007,07,23,07,04,13.60
2007,07,23,07,05,13.70
2007,07,23,07,06,13.60
2007,07,23,07,07,13.60
2007,07,23,07,08,13.60
2007,07,23,07,09,13.60
2007,07,23,07,10,13.60
2007,07,23,07,11,13.60
2007,07,23,07,12,13.60
2007,07,23,07,13,13.60
2007,07,23,07,14,13.50
2007,07,23,07,15,13.50
2007,07,23,07,16,13.50
2007,07,23,07,17,13.50
2007,07,23,07,18,13.50
2007,07,23,07,19,13.50
2007,07,23,07,20,13.50
2007,07,23,07,21,13.50
2007,07,23,07,22,13.40
2007,07,23,07,23,13.40
2007,07,23,07,24,13.40
2007,07,23,07,25,13.50
2007,07,23,07,26,13.50
2007,07,23,07,27,13.50
2007,07,23,07,28,13.40
2007,07,23,07,29,13.40
2007,07,23,07,30,13.40
2007,07,23,07,31,13.50
2007,07,23,07,32,13.50
2007,07,23,07,33,13.50
2007,07,23,07,34,13.50
2007,07,23,07,35,13.50
2007,07,23,07,36,13.50
2007,07,23,07,37,13.50
2007,07,23,07,38,13.50
2007,07,23,07,39,13.60
2007,07,23,07,40,13.60
2007,07,23,07,41,13.60
2007,07,23,07,42,13.60
2007,07,23,07,43,13.60
2007,07,23,07,44,13.60
2007,07,23,07,45,13.70
2007,07,23,07,46,13.70
2007,07,23,07,47,13.70
2007,07,23,07,48,13.70
2007,07,23,07,49,13.70
2007,07,23,07,50,13.70
2007,07,23,07,51,13.70
2007,07,23,07,52,13.70
2007,07,23,07,53,13.70
2007,07,23,07,54,13.70
2007,07,23,07,55,13.70
2007,07,23,07,56,13.70
2007,07,23,07,57,13.70
2007,07,23,07,58,13.70
2007,07,23,07,59,13.70
2007,07,23,08,00,13.70
2007,07,23,08,01,13.70
2007,07,23,08,02,13.70
2007,07,23,08,03,13.80
2007,07,23,08,04,13.80
2007,07,23,08,05,13.80
2007,07,23,08,06,13.80
2007,07,23,08,07,13.80
2007,07,23,08,08,13.80
2007,07,23,08,09,13.80
2007,07,23,08,10,13.90
2007,07,23,08,11,13.90
2007,07,23,08,12,13.90
2007,07,23,08,13,13.90
2007,07,23,08,14,13.90
2007,07,23,08,15,13.90
2007,07,23,08,16,13.90
2007,07,23,08,17,13.90
2007,07,23,08,18,13.90
2007,07,23,08,19,13.90
2007,07,23,08,20,13.90
2007,07,23,08,21,14.00
2007,07,23,08,22,14.00
2007,07,23,08,23,14.00
2007,07,23,08,24,14.00
2007,07,23,08,25,14.00
2007,07,23,08,26,14.00
2007,07,23,08,27,14.10
2007,07,23,08,28,14.10
2007,07,23,08,29,14.10
2007,07,23,08,30,14.10
2007,07,23,08,31,14.10
2007,07,23,08,32,14.10
2007,07,23,08,33,14.10
2007,07,23,08,34,14.10
2007,07,23,08,35,14.10
2007,07,23,08,36,14.10
2007,07,23,08,37,14.20
2007,07,23,08,38,14.20
2007,07,23,08,39,14.20
2007,07,23,08,40,14.20
2007,07,23,08,41,14.20
2007,07,23,08,42,14.30
2007,07,23,08,43,14.30
2007,07,23,08,44,14.30
2007,07,23,08,45,14.30
2007,07,23,08,46,14.30
2007,07,23,08,47,14.30
2007,07,23,08,48,14.30
2007,07,23,08,49,14.30
2007,07,23,08,50,14.30
2007,07,23,08,51,14.30
2007,07,23,08,52,14.30
2007,07,23,08,53,14.30
2007,07,23,08,54,14.30
2007,07,23,08,55,14.30
2007,07,23,08,56,14.30
2007,07,23,08,57,14.30
2007,07,23,08,58,14.30
2007,07,23,08,59,14.30
2007,07,23,09,00,14.30
2007,07,23,09,01,14.30
2007,07,23,09,02,14.30
2007,07,23,09,03,14.30
2007,07,23,09,04,14.30
2007,07,23,09,05,14.30
2007,07,23,09,06,14.40
2007,07,23,09,07,14.40
2007,07,23,09,08,14.40
2007,07,23,09,09,14.40
2007,07,23,09,10,14.40
2007,07,23,09,11,14.40
2007,07,23,09,12,14.40
2007,07,23,09,13,14.40
2007,07,23,09,14,14.40
2007,07,23,09,15,14.40
2007,07,23,09,16,14.40
2007,07,23,09,17,14.40
2007,07,23,09,18,14.40
2007,07,23,09,19,14.40
2007,07,23,09,20,14.40
2007,07,23,09,21,14.40
2007,07,23,09,22,14.40
2007,07,23,09,23,14.40
2007,07,23,09,24,14.50
2007,07,23,09,25,14.50
2007,07,23,09,26,14.50
2007,07,23,09,27,14.40
2007,07,23,09,28,14.40
2007,07,23,09,29,14.40
2007,07,23,09,30,14.40
2007,07,23,09,31,14.40
2007,07,23,09,32,14.40
2007,07,23,09,33,14.40
2007,07,23,09,34,14.40
2007,07,23,09,35,14.40
2007,07,23,09,36,14.40
2007,07,23,09,37,14.40
2007,07,23,09,38,14.40
2007,07,23,09,39,14.40
2007,07,23,09,40,14.40
2007,07,23,09,41,14.40
2007,07,23,09,42,14.30
2007,07,23,09,43,14.30
2007,07,23,09,44,14.30
2007,07,23,09,45,14.30
2007,07,23,09,46,14.20
2007,07,23,09,47,14.20
2007,07,23,09,48,14.20
2007,07,23,09,49,14.20
2007,07,23,09,50,14.10
2007,07,23,09,51,14.10
2007,07,23,09,52,14.10
2007,07,23,09,53,14.10
2007,07,23,09,54,14.00
2007,07,23,09,55,14.00
2007,07,23,09,56,14.00
2007,07,23,09,57,13.90
2007,07,23,09,58,13.90
2007,07,23,09,59,13.90
2007,07,23,10,00,14.00
2007,07,23,10,01,14.00
2007,07,23,10,02,14.00
2007,07,23,10,03,14.10
2007,07,23,10,04,14.10
2007,07,23,10,05,14.10
2007,07,23,10,06,14.10
2007,07,23,10,07,14.10
2007,07,23,10,08,14.10
2007,07,23,10,09,14.20
2007,07,23,10,10,14.20
2007,07,23,10,11,14.20
2007,07,23,10,12,14.30
2007,07,23,10,13,14.30
2007,07,23,10,14,14.30
2007,07,23,10,15,14.30
2007,07,23,10,16,14.30
2007,07,23,10,17,14.40
2007,07,23,10,18,14.40
2007,07,23,10,19,14.50
2007,07,23,10,20,14.50
2007,07,23,10,21,14.60
2007,07,23,10,22,14.60
2007,07,23,10,23,14.70
2007,07,23,10,24,14.70
2007,07,23,10,25,14.70
2007,07,23,10,26,14.70
2007,07,23,10,27,14.70
2007,07,23,10,28,14.70
2007,07,23,10,29,14.80
2007,07,23,10,30,14.80
2007,07,23,10,31,14.80
2007,07,23,10,32,14.80
2007,07,23,10,33,14.90
2007,07,23,10,34,15.00
2007,07,23,10,35,15.00
2007,07,23,10,36,15.00
2007,07,23,10,37,15.00
2007,07,23,10,38,15.00
2007,07,23,10,39,15.00
2007,07,23,10,40,15.00
2007,07,23,10,41,15.00
2007,07,23,10,42,15.00
2007,07,23,10,43,15.10
2007,07,23,10,44,15.10
2007,07,23,10,45,15.20
2007,07,23,10,46,15.20
2007,07,23,10,47,15.20
2007,07,23,10,48,15.30
2007,07,23,10,49,15.30
2007,07,23,10,50,15.40
2007,07,23,10,51,15.50
2007,07,23,10,52,15.50
2007,07,23,10,53,15.50
2007,07,23,10,54,15.60
2007,07,23,10,55,15.60
2007,07,23,10,56,15.60
2007,07,23,10,57,15.60
2007,07,23,10,58,15.60
2007,07,23,10,59,15.60
2007,07,23,11,00,15.60
2007,07,23,11,01,15.60
2007,07,23,11,02,15.50
2007,07,23,11,03,15.50
2007,07,23,11,04,15.60
2007,07,23,11,05,15.60
2007,07,23,11,06,15.60
2007,07,23,11,07,15.70
2007,07,23,11,08,15.70
2007,07,23,11,09,15.70
2007,07,23,11,10,15.70
2007,07,23,11,11,15.80
2007,07,23,11,12,15.80
2007,07,23,11,13,15.80
2007,07,23,11,14,15.80
2007,07,23,11,15,15.90
2007,07,23,11,16,15.90
2007,07,23,11,17,15.90
2007,07,23,11,18,15.90
2007,07,23,11,19,16.00
2007,07,23,11,20,16.00
2007,07,23,11,21,16.00
2007,07,23,11,22,16.10
2007,07,23,11,23,16.10
2007,07,23,11,24,16.10
2007,07,23,11,25,16.10
2007,07,23,11,26,16.10
2007,07,23,11,27,16.20
2007,07,23,11,28,16.20
2007,07,23,11,29,16.20
2007,07,23,11,30,16.20
2007,07,23,11,31,16.30
2007,07,23,11,32,16.30
2007,07,23,11,33,16.40
2007,07,23,11,34,16.40
2007,07,23,11,35,16.40
2007,07,23,11,36,16.50
2007,07,23,11,37,16.50
2007,07,23,11,38,16.50
2007,07,23,11,39,16.50
2007,07,23,11,40,16.50
2007,07,23,11,41,16.50
2007,07,23,11,42,16.50
2007,07,23,11,43,16.50
2007,07,23,11,44,16.60
2007,07,23,11,45,16.60
2007,07,23,11,46,16.50
2007,07,23,11,47,16.50
2007,07,23,11,48,16.50
2007,07,23,11,49,16.50
2007,07,23,11,50,16.50
2007,07,23,11,51,16.50
2007,07,23,11,52,16.60
2007,07,23,11,53,16.60
2007,07,23,11,54,16.60
2007,07,23,11,55,16.70
2007,07,23,11,56,16.70
2007,07,23,11,57,16.80
2007,07,23,11,58,16.80
2007,07,23,11,59,16.80
2007,07,23,12,00,16.80
2007,07,23,12,01,16.90
2007,07,23,12,02,16.90
2007,07,23,12,03,16.90
2007,07,23,12,04,16.90
2007,07,23,12,05,17.00
2007,07,23,12,06,17.00
2007,07,23,12,07,17.10
2007,07,23,12,08,17.10
2007,07,23,12,09,17.10
2007,07,23,12,10,17.20
2007,07,23,12,11,17.20
2007,07,23,12,12,17.20
2007,07,23,12,13,17.30
2007,07,23,12,14,17.30
2007,07,23,12,15,17.30
2007,07,23,12,16,17.30
2007,07,23,12,17,17.40
2007,07,23,12,18,17.40
2007,07,23,12,19,17.40
2007,07,23,12,20,17.50
2007,07,23,12,21,17.50
2007,07,23,12,22,17.50
2007,07,23,12,23,17.60
2007,07,23,12,24,17.60
2007,07,23,12,25,17.60
2007,07,23,12,26,17.60
2007,07,23,12,27,17.60
2007,07,23,12,28,17.70
2007,07,23,12,29,17.70
2007,07,23,12,30,17.70
2007,07,23,12,31,17.70
2007,07,23,12,32,17.80
2007,07,23,12,33,17.80
2007,07,23,12,34,17.80
2007,07,23,12,35,17.80
2007,07,23,12,36,17.80
2007,07,23,12,37,17.90
2007,07,23,12,38,17.90
2007,07,23,12,39,17.90
2007,07,23,12,40,17.90
2007,07,23,12,41,17.90
2007,07,23,12,42,17.90
2007,07,23,12,43,17.90
2007,07,23,12,44,17.90
2007,07,23,12,45,18.00
2007,07,23,12,46,18.00
2007,07,23,12,47,18.00
2007,07,23,12,48,18.00
2007,07,23,12,49,18.00
2007,07,23,12,50,18.00
2007,07,23,12,51,17.90
2007,07,23,12,52,17.90
2007,07,23,12,53,17.90
2007,07,23,12,54,17.80
2007,07,23,12,55,17.80
2007,07,23,12,56,17.80
2007,07,23,12,57,17.80
2007,07,23,12,58,17.80
2007,07,23,12,59,17.80
2007,07,23,13,00,17.80
2007,07,23,13,01,17.80
2007,07,23,13,02,17.80
2007,07,23,13,03,17.80
2007,07,23,13,04,17.80
2007,07,23,13,05,17.90
2007,07,23,13,06,17.90
2007,07,23,13,07,17.90
2007,07,23,13,08,18.00
2007,07,23,13,09,18.00
2007,07,23,13,10,18.10
2007,07,23,13,11,18.20
2007,07,23,13,12,18.20
2007,07,23,13,13,18.30
2007,07,23,13,14,18.30
2007,07,23,13,15,18.40
2007,07,23,13,16,18.50
2007,07,23,13,17,18.50
2007,07,23,13,18,18.60
2007,07,23,13,19,18.60
2007,07,23,13,20,18.70
2007,07,23,13,21,18.70
2007,07,23,13,22,18.80
2007,07,23,13,23,18.80
2007,07,23,13,24,18.80
2007,07,23,13,25,18.80
2007,07,23,13,26,18.80
2007,07,23,13,27,18.90
2007,07,23,13,28,18.90
2007,07,23,13,29,18.90
2007,07,23,13,30,18.90
2007,07,23,13,31,18.90
2007,07,23,13,32,18.90
2007,07,23,13,33,18.90
2007,07,23,13,34,18.90
2007,07,23,13,35,18.90
2007,07,23,13,36,19.00
2007,07,23,13,37,19.00
2007,07,23,13,38,18.90
2007,07,23,13,39,18.90
2007,07,23,13,40,18.90
2007,07,23,13,41,18.90
2007,07,23,13,42,18.80
2007,07,23,13,43,18.80
2007,07,23,13,44,18.70
2007,07,23,13,45,18.70
2007,07,23,13,46,18.70
2007,07,23,13,47,18.70
2007,07,23,13,48,18.70
2007,07,23,13,49,18.70
2007,07,23,13,50,18.60
2007,07,23,13,51,18.60
2007,07,23,13,52,18.60
2007,07,23,13,53,18.60
2007,07,23,13,54,18.50
2007,07,23,13,55,18.50
2007,07,23,13,56,18.50
2007,07,23,13,57,18.50
2007,07,23,13,58,18.40
2007,07,23,13,59,18.40
2007,07,23,14,00,18.40
2007,07,23,14,01,18.40
2007,07,23,14,02,18.40
2007,07,23,14,03,18.40
2007,07,23,14,04,18.40
2007,07,23,14,05,18.40
2007,07,23,14,06,18.30
2007,07,23,14,07,18.30
2007,07,23,14,08,18.30
2007,07,23,14,09,18.30
2007,07,23,14,10,18.30
2007,07,23,14,11,18.30
2007,07,23,14,12,18.30
2007,07,23,14,13,18.30
2007,07,23,14,14,18.30
2007,07,23,14,15,18.30
2007,07,23,14,16,18.30
2007,07,23,14,17,18.30
2007,07,23,14,18,18.30
2007,07,23,14,19,18.30
2007,07,23,14,20,18.30
2007,07,23,14,21,18.30
2007,07,23,14,22,18.30
2007,07,23,14,23,18.30
2007,07,23,14,24,18.30
2007,07,23,14,25,18.20
2007,07,23,14,26,18.20
2007,07,23,14,27,18.20
2007,07,23,14,28,18.20
2007,07,23,14,29,18.20
2007,07,23,14,30,18.20
2007,07,23,14,31,18.20
2007,07,23,14,32,18.20
2007,07,23,14,33,18.20
2007,07,23,14,34,18.30
2007,07,23,14,35,18.30
2007,07,23,14,36,18.30
2007,07,23,14,37,18.30
2007,07,23,14,38,18.30
2007,07,23,14,39,18.30
2007,07,23,14,40,18.30
2007,07,23,14,41,18.30
2007,07,23,14,42,18.30
2007,07,23,14,43,18.30
2007,07,23,14,44,18.40
2007,07,23,14,45,18.40
2007,07,23,14,46,18.40
2007,07,23,14,47,18.40
2007,07,23,14,48,18.30
2007,07,23,14,49,18.30
2007,07,23,14,50,18.20
2007,07,23,14,51,18.10
2007,07,23,14,52,18.10
2007,07,23,14,53,18.00
2007,07,23,14,54,17.90
2007,07,23,14,55,17.80
2007,07,23,14,56,17.80
2007,07,23,14,57,17.80
2007,07,23,14,58,17.80
2007,07,23,14,59,17.70
2007,07,23,15,00,17.70
2007,07,23,15,01,17.70
2007,07,23,15,02,17.70
2007,07,23,15,03,17.70
2007,07,23,15,04,17.70
2007,07,23,15,05,17.60
2007,07,23,15,06,17.60
2007,07,23,15,07,17.60
2007,07,23,15,08,17.70
2007,07,23,15,09,17.70
2007,07,23,15,10,17.70
2007,07,23,15,11,17.70
2007,07,23,15,12,17.70
2007,07,23,15,13,17.70
2007,07,23,15,14,17.70
2007,07,23,15,15,17.80
2007,07,23,15,16,17.80
2007,07,23,15,17,17.80
2007,07,23,15,18,17.80
2007,07,23,15,19,17.80
2007,07,23,15,20,17.80
2007,07,23,15,21,17.90
2007,07,23,15,22,17.90
2007,07,23,15,23,17.90
2007,07,23,15,24,17.90
2007,07,23,15,25,17.90
2007,07,23,15,26,17.90
2007,07,23,15,27,17.90
2007,07,23,15,28,18.00
2007,07,23,15,29,18.00
2007,07,23,15,30,18.00
2007,07,23,15,31,18.00
2007,07,23,15,32,18.00
2007,07,23,15,33,18.00
2007,07,23,15,34,18.00
2007,07,23,15,35,18.00
2007,07,23,15,36,18.00
2007,07,23,15,37,18.00
2007,07,23,15,38,18.00
2007,07,23,15,39,18.00
2007,07,23,15,40,18.00
2007,07,23,15,41,18.00
2007,07,23,15,42,18.10
2007,07,23,15,43,18.10
2007,07,23,15,44,18.10
2007,07,23,15,45,18.00
2007,07,23,15,46,18.00
2007,07,23,15,47,18.00
2007,07,23,15,48,18.00
2007,07,23,15,49,18.00
2007,07,23,15,50,18.10
2007,07,23,15,51,18.10
2007,07,23,15,52,18.10
2007,07,23,15,53,18.10
2007,07,23,15,54,18.10
2007,07,23,15,55,18.10
2007,07,23,15,56,18.10
2007,07,23,15,57,18.10
2007,07,23,15,58,18.10
2007,07,23,15,59,18.10
2007,07,23,16,00,18.10
2007,07,23,16,01,18.00
2007,07,23,16,02,18.00
2007,07,23,16,03,18.00
2007,07,23,16,04,18.00
2007,07,23,16,05,18.00
2007,07,23,16,06,18.00
2007,07,23,16,07,18.10
2007,07,23,16,08,18.10
2007,07,23,16,09,18.10
2007,07,23,16,10,18.10
2007,07,23,16,11,18.10
2007,07,23,16,12,18.10
2007,07,23,16,13,18.10
2007,07,23,16,14,18.10
2007,07,23,16,15,18.10
2007,07,23,16,16,18.10
2007,07,23,16,17,18.10
2007,07,23,16,18,18.10
2007,07,23,16,19,18.10
2007,07,23,16,20,18.10
2007,07,23,16,21,18.20
2007,07,23,16,22,18.20
2007,07,23,16,23,18.20
2007,07,23,16,24,18.20
2007,07,23,16,25,18.20
2007,07,23,16,26,18.20
2007,07,23,16,27,18.30
2007,07,23,16,28,18.30
2007,07,23,16,29,18.30
2007,07,23,16,30,18.40
2007,07,23,16,31,18.40
2007,07,23,16,32,18.40
2007,07,23,16,33,18.40
2007,07,23,16,34,18.40
2007,07,23,16,35,18.40
2007,07,23,16,36,18.40
2007,07,23,16,37,18.40
2007,07,23,16,38,18.40
2007,07,23,16,39,18.30
2007,07,23,16,40,18.30
2007,07,23,16,41,18.20
2007,07,23,16,42,18.20
2007,07,23,16,43,18.20
2007,07,23,16,44,18.10
2007,07,23,16,45,18.10
2007,07,23,16,46,18.00
2007,07,23,16,47,17.90
2007,07,23,16,48,17.90
2007,07,23,16,49,17.80
2007,07,23,16,50,17.80
2007,07,23,16,51,17.80
2007,07,23,16,52,17.70
2007,07,23,16,53,17.70
2007,07,23,16,54,17.70
2007,07,23,16,55,17.70
2007,07,23,16,56,17.80
2007,07,23,16,57,17.80
2007,07,23,16,58,17.80
2007,07,23,16,59,17.80
2007,07,23,17,00,17.80
2007,07,23,17,01,17.90
2007,07,23,17,02,17.90
2007,07,23,17,03,17.90
2007,07,23,17,04,18.00
2007,07,23,17,05,18.00
2007,07,23,17,06,18.10
2007,07,23,17,07,18.10
2007,07,23,17,08,18.10
2007,07,23,17,09,18.10
2007,07,23,17,10,18.10
2007,07,23,17,11,18.20
2007,07,23,17,12,18.20
2007,07,23,17,13,18.20
2007,07,23,17,14,18.20
2007,07,23,17,15,18.20
2007,07,23,17,16,18.20
2007,07,23,17,17,18.20
2007,07,23,17,18,18.20
2007,07,23,17,19,18.20